QPF
0.00 0.00 0.00 0.00 0.00 0.00 0.00 0.00 0.00 0.00 0.00 0.00 0.00 0.00 0.00 0.00 0.00 0.00 0.00 0.00 0.00 0.00 0.00 0.00 0.00 0.00 0.00 0.00 0.00 0.00 0.00 0.00 0.00 0.00 0.00 0.00 0.00 0.00 0.00 0.00 0.00 0.00 0.00 0.00
0.00 0.00 0.00 0.00 0.00 0.00 0.00 0.00 0.00 0.00 0.00 0.00 0.00 0.00 0.00 0.00 0.00 0.00 0.00 0.00 0.00 0.00 0.00 0.00 0.00 0.00 0.00 0.00 0.00 0.00 0.00 0.00 0.00 0.00 0.00 0.00 0.00 0.00 0.00 0.00 0.00 0.00 0.00 0.00
0.00 0.00 0.00 0.00 0.00 0.00 0.00 0.00 0.00 0.00 0.00 0.00 0.00 0.00 0.00 0.00 0.00 0.00 0.00 0.00 0.00 0.00 0.00 0.00 0.00 0.00 0.00 0.00 0.00 0.00 0.00 0.00 0.00 0.00 0.00 0.00 0.00 0.00 0.00 0.00 0.00 0.00 0.00 0.00
0.00 0.00 0.00 0.00 0.00 0.00 0.00 0.00 0.00 0.00 0.00 0.00 0.00 0.00 0.00 0.00 0.00 0.00 0.00 0.00 0.00 0.00 0.00 0.00 0.00 0.00 0.00 0.00 0.00 0.00 0.00 0.00 0.00 0.00 0.00 0.00 0.00 0.00 0.00 0.00 0.00 0.00 0.00 0.00
0.00 0.00 0.00 0.00 0.00 0.00 0.00 0.00 0.00 0.00 0.00 0.00 0.00 0.00 0.00 0.00 0.00 0.00 0.00 0.00 0.00 0.00 0.00 0.00 0.00 0.00 0.00 0.00 0.00 0.00 0.00 0.00 0.00 0.00 0.00 0.00 0.00 0.00 0.00 0.00 0.00 0.00 0.00 0.00
0.00 0.00 0.00 0.00 0.00 0.00 0.00 0.00 0.00 0.00 0.00 0.00 0.00 0.00 0.00 0.00 0.00 0.00 0.00 0.00 0.00 0.00 0.00 0.00 0.00 0.00 0.00 0.00 0.00 0.00 0.00 0.00 0.00 0.00 0.00 0.00 0.00 0.00 0.00 0.00 0.00 0.00 0.00 0.00
0.00 0.00 0.00 0.00 0.00 0.00 0.00 0.00 0.00 0.00 0.00 0.00 0.00 0.00 0.00 0.00 0.00 0.00 0.00 0.00 0.00 0.00 0.00 0.00 0.00 0.00 0.00 0.00 0.00 0.00 0.00 0.00 0.00 0.00 0.00 0.00 0.00 0.00 0.00 0.00 0.00 0.00 0.00 0.00
0.00 0.00 0.00 0.00 0.00 0.00 0.00 0.00 0.00 0.00 0.00 0.00 0.00 0.00 0.00 0.00 0.00 0.00 0.00 0.00 0.00 0.00 0.00 0.00 0.00 0.00 0.00 0.00 0.00 0.00 0.00 0.00 0.00 0.00 0.00 0.00 0.00 0.00 0.00 0.00 0.00 0.00 0.00 0.00
0.00 0.00 0.00 0.00 0.00 0.00 0.00 0.00 0.00 0.00 0.00 0.00 0.00 0.00 0.00 0.00 0.00 0.00 0.00 0.00 0.00 0.00 0.00 0.00 0.00 0.00 0.00 0.00 0.00 0.00 0.00 0.00 0.00 0.00 0.00 0.00 0.00 0.00 0.00 0.00 0.00 0.00 0.00 0.00
0.00 0.00 0.00 0.00 0.00 0.00 0.00 0.00 0.00 0.00 0.00 0.00 0.00 0.00 0.00 0.00 0.00 0.00 0.00 0.00 0.00 0.00 0.00 0.00 0.00 0.00 0.00 0.00 0.00 0.00 0.00 0.00 0.00 0.00 0.00 0.00 0.00 0.00 0.00 0.00 0.00 0.00 0.00 0.00
0.00 0.00 0.00 0.00 0.00 0.00 0.00 0.00 0.00 0.00 0.00 0.00 0.00 0.00 0.00 0.00 0.00 0.00 0.00 0.00 0.00 0.00 0.00 0.00 0.00 0.00 0.00 0.00 0.00 0.00 0.00 0.00 0.00 0.00 0.00 0.00 0.00 0.00 0.00 0.00 0.00 0.00 0.00 0.00
0.00 0.00 0.00 0.00 0.00 0.00 0.00 0.00 0.00 0.00 0.00 0.00 0.00 0.00 0.00 0.00 0.00 0.00 0.00 0.00 0.00 0.00 0.00 0.00 0.00 0.00 0.00 0.00 0.00 0.00 0.00 0.00 0.00 0.00 0.00 0.00 0.00 0.00 0.00 0.00 0.00 0.00 0.00 0.00
0.00 0.00 0.00 0.00 0.00 0.00 0.00 0.00 0.00 0.00 0.00 0.00 0.00 0.00 0.00 0.00 0.00 0.00 0.00 0.00 0.00 0.00 0.00 0.00 0.00 0.00 0.00 0.00 0.00 0.00 0.00 0.00 0.00 0.00 0.00 0.00 0.00 0.00 0.00 0.00 0.00 0.00 0.00 0.00
0.00 0.00 0.00 0.00 0.00 0.00 0.00 0.00 0.00 0.00 0.00 0.00 0.00 0.00 0.00 0.00 0.00 0.00 0.00 0.00 0.00 0.00 0.00 0.00 0.00 0.00 0.00 0.00 0.00 0.00 0.00 0.00 0.00 0.00 0.00 0.00 0.00 0.00 0.00 0.00 0.00 0.00 0.00 0.00
0.00 0.00 0.00 0.00 0.00 0.00 0.00 0.00 0.00 0.00 0.00 0.00 0.00 0.00 0.00 0.00 0.00 0.00 0.00 0.00 0.00 0.00 0.00 0.00 0.00 0.00 0.00 0.00 0.00 0.00 0.00 0.00 0.00 0.00 0.00 0.00 0.00 0.00 0.00 0.00 0.00 0.00 0.00 0.00
0.00 0.00 0.00 0.00 0.00 0.00 0.00 0.00 0.00 0.00 0.00 0.00 0.00 0.00 0.00 0.00 0.00 0.00 0.00 0.00 0.00 0.00 0.00 0.00 0.00 0.00 0.00 0.00 0.00 0.00 0.00 0.00 0.00 0.00 0.00 0.00 0.00 0.00 0.00 0.00 0.00 0.00 0.00 0.00
0.00 0.00 0.00 0.00 0.00 0.00 0.00 0.00 0.00 0.00 0.00 0.00 0.00 0.00 0.00 0.00 0.00 0.00 0.00 0.00 0.00 0.00 0.00 0.00 0.00 0.00 0.00 0.00 0.00 0.00 0.00 0.00 0.00 0.00 0.00 0.00 0.00 0.00 0.00 0.00 0.00 0.00 0.00 0.00
0.00 0.00 0.00 0.00 0.00 0.00 0.00 0.00 0.00 0.00 0.00 0.00 0.00 0.00 0.00 0.00 0.00 0.00 0.00 0.00 0.00 0.00 0.00 0.00 0.00 0.00 0.00 0.00 0.00 0.00 0.00 0.00 0.00 0.00 0.00 0.00 0.00 0.00 0.00 0.00 0.00 0.00 0.00 0.00
0.00 0.00 0.00 0.00 0.00 0.00 0.00 0.00 0.00 0.00 0.00 0.00 0.00 0.00 0.00 0.00 0.00 0.00 0.00 0.00 0.00 0.00 0.00 0.00 0.00 0.00 0.00 0.00 0.00 0.00 0.00 0.00 0.00 0.00 0.00 0.00 0.00 0.00 0.00 0.00 0.00 0.00 0.00 0.00
0.00 0.00 0.00 0.00 0.00 0.00 0.00 0.00 0.00 0.00 0.00 0.00 0.00 0.00 0.00 0.00 0.00 0.00 0.00 0.00 0.00 0.00 0.00 0.00 0.00 0.00 0.00 0.00 0.00 0.00 0.00 0.00 0.00 0.00 0.00 0.00 0.00 0.00 0.00 0.00 0.00 0.00 0.00 0.00
0.00 0.00 0.00 0.00 0.00 0.00 0.00 0.00 0.00 0.00 0.00 0.00 0.00 0.00 0.00 0.00 0.00 0.00 0.00 0.00 0.00 0.00 0.00 0.00 0.00 0.00 0.00 0.00 0.00 0.00 0.00 0.00 0.00 0.00 0.00 0.00 0.00 0.00 0.00 0.00 0.00 0.00 0.00 0.00
0.00 0.00 0.00 0.00 0.00 0.00 0.00 0.00 0.00 0.00 0.00 0.00 0.00 0.00 0.00 0.00 0.00 0.00 0.00 0.00 0.00 0.00 0.00 0.00 0.00 0.00 0.00 0.00 0.00 0.00 0.00 0.00 0.00 0.00 0.00 0.00 0.00 0.00 0.00 0.00 0.00 0.00 0.00 0.00
0.00 0.00 0.00 0.00 0.00 0.00 0.00 0.00 0.00 0.00 0.00 0.00 0.00 0.00 0.00 0.00 0.00 0.00 0.00 0.00 0.00 0.00 0.00 0.00 0.00 0.00 0.00 0.00 0.00 0.00 0.00 0.00 0.00 0.00 0.00 0.00 0.00 0.00 0.00 0.00 0.00 0.00 0.00 0.00
0.00 0.00 0.00 0.00 0.00 0.00 0.00 0.00 0.00 0.00 0.00 0.00 0.00 0.00 0.00 0.00 0.00 0.00 0.00 0.00 0.00 0.00 0.00 0.00 0.00 0.00 0.00 0.00 0.00 0.00 0.00 0.00 0.00 0.00 0.00 0.00 0.00 0.00 0.00 0.00 0.00 0.00 0.00 0.01
0.00 0.00 0.00 0.00 0.00 0.00 0.00 0.00 0.00 0.00 0.00 0.00 0.00 0.00 0.00 0.00 0.00 0.00 0.00 0.00 0.00 0.00 0.00 0.00 0.00 0.00 0.00 0.00 0.00 0.00 0.00 0.00 0.00 0.00 0.00 0.00 0.00 0.00 0.00 0.00 0.00 0.00 0.00 0.02
0.00 0.00 0.00 0.00 0.00 0.00 0.00 0.00 0.00 0.00 0.00 0.00 0.00 0.00 0.00 0.00 0.00 0.00 0.00 0.00 0.00 0.00 0.00 0.00 0.00 0.00 0.00 0.00 0.00 0.00 0.00 0.00 0.00 0.00 0.00 0.00 0.00 0.00 0.00 0.00 0.00 0.00 0.00 0.00
MSLP
1024.58 1025.39 1026.12 1026.74 1027.23 1027.60 1027.87 1028.11 1028.37 1028.71 1029.14 1029.68 1030.33 1031.04 1031.78 1032.50 1033.15 1033.71 1034.16 1034.54 1034.84 1035.12 1035.40 1035.69 1036.00 1036.32 1036.60 1036.83 1036.94 1036.92 1036.75 1036.44 1036.01 1035.51 1034.97 1034.44 1033.94 1033.48 1033.04 1032.62 1032.17 1031.68 1031.13 1030.53
1025.34 1025.94 1026.45 1026.84 1027.14 1027.36 1027.55 1027.75 1028.01 1028.36 1028.82 1029.39 1030.04 1030.75 1031.47 1032.16 1032.79 1033.36 1033.85 1034.28 1034.65 1035.00 1035.34 1035.68 1036.01 1036.33 1036.60 1036.81 1036.91 1036.89 1036.74 1036.47 1036.09 1035.64 1035.14 1034.62 1034.10 1033.60 1033.10 1032.60 1032.09 1031.56 1030.99 1030.39
1026.00 1026.40 1026.71 1026.92 1027.06 1027.18 1027.31 1027.49 1027.75 1028.11 1028.56 1029.10 1029.71 1030.35 1031.00 1031.64 1032.25 1032.82 1033.36 1033.87 1034.35 1034.80 1035.24 1035.65 1036.02 1036.35 1036.61 1036.79 1036.87 1036.85 1036.72 1036.49 1036.16 1035.76 1035.31 1034.80 1034.28 1033.73 1033.17 1032.60 1032.02 1031.42 1030.82 1030.22
1026.56 1026.79 1026.93 1027.00 1027.05 1027.11 1027.22 1027.41 1027.68 1028.03 1028.44 1028.91 1029.41 1029.93 1030.46 1031.00 1031.56 1032.14 1032.73 1033.34 1033.95 1034.54 1035.10 1035.60 1036.03 1036.38 1036.63 1036.78 1036.84 1036.81 1036.69 1036.49 1036.21 1035.86 1035.45 1034.97 1034.44 1033.86 1033.25 1032.61 1031.95 1031.29 1030.64 1030.01
1027.03 1027.11 1027.13 1027.13 1027.14 1027.20 1027.34 1027.56 1027.84 1028.17 1028.53 1028.88 1029.22 1029.57 1029.94 1030.34 1030.82 1031.38 1032.03 1032.74 1033.50 1034.25 1034.95 1035.57 1036.07 1036.45 1036.69 1036.82 1036.84 1036.78 1036.65 1036.46 1036.22 1035.91 1035.53 1035.08 1034.56 1033.97 1033.31 1032.61 1031.89 1031.17 1030.45 1029.76
1027.41 1027.39 1027.34 1027.30 1027.33 1027.44 1027.65 1027.93 1028.25 1028.56 1028.83 1029.05 1029.21 1029.36 1029.52 1029.77 1030.14 1030.67 1031.35 1032.16 1033.06 1033.97 1034.83 1035.57 1036.16 1036.56 1036.80 1036.89 1036.87 1036.76 1036.60 1036.40 1036.17 1035.89 1035.55 1035.13 1034.62 1034.03 1033.35 1032.61 1031.84 1031.05 1030.27 1029.51
1027.72 1027.63 1027.54 1027.52 1027.60 1027.81 1028.11 1028.48 1028.84 1029.14 1029.33 1029.40 1029.38 1029.31 1029.27 1029.34 1029.59 1030.07 1030.77 1031.67 1032.70 1033.76 1034.76 1035.63 1036.30 1036.74 1036.98 1037.03 1036.94 1036.77 1036.56 1036.32 1036.07 1035.80 1035.48 1035.09 1034.61 1034.03 1033.35 1032.60 1031.78 1030.94 1030.09 1029.24
1027.96 1027.82 1027.73 1027.75 1027.92 1028.23 1028.64 1029.10 1029.51 1029.80 1029.93 1029.87 1029.68 1029.41 1029.18 1029.08 1029.22 1029.64 1030.35 1031.32 1032.45 1033.64 1034.78 1035.75 1036.49 1036.97 1037.20 1037.20 1037.06 1036.81 1036.52 1036.23 1035.95 1035.66 1035.35 1034.98 1034.52 1033.97 1033.31 1032.56 1031.72 1030.84 1029.92 1028.99
1028.13 1027.97 1027.90 1027.97 1028.22 1028.63 1029.14 1029.68 1030.13 1030.42 1030.49 1030.33 1030.00 1029.58 1029.19 1028.96 1029.00 1029.37 1030.09 1031.10 1032.31 1033.61 1034.85 1035.91 1036.72 1037.22 1037.44 1037.41 1037.20 1036.87 1036.51 1036.15 1035.82 1035.50 1035.18 1034.82 1034.39 1033.86 1033.22 1032.48 1031.65 1030.74 1029.77 1028.77
1028.26 1028.09 1028.04 1028.16 1028.46 1028.94 1029.52 1030.10 1030.57 1030.85 1030.88 1030.65 1030.22 1029.69 1029.20 1028.89 1028.87 1029.21 1029.93 1030.98 1032.25 1033.61 1034.93 1036.06 1036.91 1037.45 1037.66 1037.60 1037.34 1036.95 1036.52 1036.09 1035.70 1035.34 1034.99 1034.63 1034.21 1033.71 1033.10 1032.38 1031.55 1030.64 1029.64 1028.59
1028.35 1028.20 1028.16 1028.30 1028.62 1029.12 1029.70 1030.27 1030.73 1030.97 1030.96 1030.68 1030.21 1029.64 1029.11 1028.78 1028.75 1029.09 1029.82 1030.89 1032.20 1033.60 1034.96 1036.13 1037.02 1037.58 1037.80 1037.73 1037.45 1037.02 1036.54 1036.06 1035.61 1035.21 1034.83 1034.45 1034.03 1033.54 1032.95 1032.25 1031.45 1030.54 1029.54 1028.47
1028.45 1028.32 1028.29 1028.42 1028.72 1029.16 1029.68 1030.18 1030.56 1030.74 1030.67 1030.37 1029.90 1029.34 1028.85 1028.55 1028.56 1028.93 1029.69 1030.78 1032.10 1033.52 1034.89 1036.08 1036.98 1037.56 1037.81 1037.76 1037.48 1037.05 1036.55 1036.04 1035.56 1035.12 1034.71 1034.31 1033.87 1033.38 1032.80 1032.12 1031.34 1030.45 1029.46 1028.40
1028.61 1028.51 1028.48 1028.57 1028.78 1029.10 1029.48 1029.84 1030.09 1030.17 1030.04 1029.73 1029.28 1028.79 1028.38 1028.17 1028.26 1028.71 1029.51 1030.62 1031.93 1033.34 1034.69 1035.87 1036.78 1037.38 1037.66 1037.65 1037.41 1037.02 1036.54 1036.03 1035.54 1035.08 1034.64 1034.21 1033.75 1033.25 1032.67 1032.00 1031.24 1030.38 1029.44 1028.41
1028.87 1028.81 1028.76 1028.77 1028.85 1029.00 1029.17 1029.32 1029.39 1029.33 1029.13 1028.80 1028.41 1028.02 1027.74 1027.67 1027.89 1028.43 1029.28 1030.40 1031.70 1033.06 1034.37 1035.52 1036.42 1037.03 1037.35 1037.40 1037.23 1036.90 1036.48 1036.01 1035.54 1035.08 1034.62 1034.16 1033.68 1033.16 1032.58 1031.92 1031.18 1030.36 1029.46 1028.49
1029.24 1029.22 1029.14 1029.04 1028.96 1028.88 1028.80 1028.70 1028.55 1028.33 1028.04 1027.71 1027.38 1027.13 1027.01 1027.12 1027.48 1028.13 1029.05 1030.18 1031.44 1032.75 1033.99 1035.08 1035.95 1036.56 1036.91 1037.03 1036.94 1036.70 1036.36 1035.96 1035.53 1035.09 1034.64 1034.17 1033.67 1033.13 1032.54 1031.89 1031.17 1030.39 1029.54 1028.64
1029.71 1029.71 1029.58 1029.37 1029.09 1028.76 1028.41 1028.04 1027.65 1027.27 1026.89 1026.57 1026.33 1026.22 1026.29 1026.58 1027.12 1027.89 1028.87 1030.00 1031.22 1032.45 1033.60 1034.61 1035.43 1036.03 1036.40 1036.58 1036.58 1036.44 1036.19 1035.87 1035.50 1035.10 1034.66 1034.20 1033.69 1033.15 1032.56 1031.91 1031.22 1030.47 1029.68 1028.84
1030.19 1030.19 1030.01 1029.66 1029.18 1028.61 1027.99 1027.36 1026.75 1026.21 1025.77 1025.46 1025.32 1025.38 1025.64 1026.14 1026.84 1027.74 1028.78 1029.92 1031.09 1032.23 1033.28 1034.19 1034.94 1035.50 1035.89 1036.10 1036.17 1036.12 1035.97 1035.74 1035.44 1035.09 1034.68 1034.23 1033.74 1033.20 1032.61 1031.98 1031.32 1030.60 1029.85 1029.07
1030.56 1030.54 1030.28 1029.80 1029.14 1028.35 1027.49 1026.63 1025.85 1025.19 1024.72 1024.45 1024.43 1024.65 1025.12 1025.81 1026.69 1027.71 1028.81 1029.95 1031.07 1032.12 1033.06 1033.87 1034.53 1035.04 1035.41 1035.65 1035.78 1035.79 1035.72 1035.56 1035.33 1035.03 1034.67 1034.24 1033.77 1033.25 1032.68 1032.08 1031.43 1030.75 1030.03 1029.28
1030.68 1030.62 1030.27 1029.67 1028.84 1027.87 1026.84 1025.82 1024.92 1024.20 1023.73 1023.54 1023.65 1024.05 1024.71 1025.59 1026.62 1027.75 1028.91 1030.05 1031.12 1032.09 1032.93 1033.64 1034.22 1034.68 1035.02 1035.26 1035.41 1035.47 1035.45 1035.35 1035.17 1034.92 1034.59 1034.20 1033.76 1033.26 1032.72 1032.15 1031.53 1030.87 1030.18 1029.44
1030.43 1030.29 1029.86 1029.15 1028.20 1027.11 1025.96 1024.86 1023.92 1023.20 1022.79 1022.70 1022.96 1023.52 1024.36 1025.40 1026.57 1027.80 1029.01 1030.15 1031.18 1032.08 1032.84 1033.47 1033.98 1034.38 1034.69 1034.92 1035.08 1035.16 1035.17 1035.10 1034.96 1034.73 1034.44 1034.08 1033.67 1033.21 1032.71 1032.16 1031.57 1030.93 1030.24 1029.50
1029.73 1029.50 1028.98 1028.18 1027.17 1026.02 1024.84 1023.75 1022.83 1022.19 1021.87 1021.92 1022.32 1023.04 1024.03 1025.20 1026.47 1027.77 1029.01 1030.15 1031.16 1032.02 1032.72 1033.30 1033.76 1034.12 1034.41 1034.63 1034.78 1034.87 1034.88 1034.82 1034.69 1034.48 1034.21 1033.88 1033.49 1033.06 1032.59 1032.08 1031.52 1030.89 1030.21 1029.46
1028.56 1028.23 1027.63 1026.79 1025.76 1024.63 1023.51 1022.49 1021.68 1021.16 1020.98 1021.17 1021.71 1022.57 1023.66 1024.93 1026.27 1027.60 1028.85 1029.99 1030.98 1031.81 1032.49 1033.04 1033.48 1033.84 1034.12 1034.33 1034.48 1034.56 1034.57 1034.51 1034.37 1034.16 1033.90 1033.58 1033.22 1032.82 1032.38 1031.89 1031.36 1030.75 1030.07 1029.31
1026.99 1026.56 1025.89 1025.04 1024.06 1023.02 1022.02 1021.15 1020.51 1020.16 1020.15 1020.49 1021.16 1022.10 1023.27 1024.57 1025.93 1027.26 1028.50 1029.62 1030.60 1031.42 1032.10 1032.65 1033.11 1033.47 1033.76 1033.99 1034.14 1034.23 1034.23 1034.16 1034.01 1033.80 1033.53 1033.22 1032.87 1032.49 1032.08 1031.62 1031.10 1030.51 1029.83 1029.07
1025.11 1024.58 1023.89 1023.07 1022.19 1021.30 1020.48 1019.83 1019.40 1019.26 1019.43 1019.91 1020.67 1021.68 1022.87 1024.16 1025.48 1026.77 1027.97 1029.06 1030.01 1030.83 1031.53 1032.11 1032.60 1033.00 1033.33 1033.58 1033.76 1033.85 1033.85 1033.77 1033.61 1033.39 1033.12 1032.81 1032.48 1032.12 1031.72 1031.28 1030.79 1030.21 1029.54 1028.78
1023.05 1022.44 1021.76 1021.02 1020.27 1019.59 1019.01 1018.61 1018.43 1018.51 1018.85 1019.46 1020.30 1021.33 1022.49 1023.73 1024.98 1026.19 1027.32 1028.35 1029.28 1030.09 1030.80 1031.42 1031.96 1032.42 1032.80 1033.10 1033.30 1033.42 1033.43 1033.36 1033.20 1032.98 1032.71 1032.41 1032.08 1031.74 1031.36 1030.95 1030.47 1029.91 1029.25 1028.50
1020.91 1020.26 1019.61 1018.98 1018.43 1017.97 1017.67 1017.54 1017.62 1017.92 1018.44 1019.16 1020.05 1021.08 1022.19 1023.34 1024.48 1025.58 1026.62 1027.58 1028.46 1029.26 1029.99 1030.64 1031.23 1031.75 1032.19 1032.54 1032.79 1032.94 1032.98 1032.92 1032.78 1032.57 1032.32 1032.03 1031.73 1031.40 1031.05 1030.65 1030.20 1029.66 1029.03 1028.31
Thickness
5678 5666 5652 5655 5655 5655 5650 5639 5634 5630 5621 5612 5605 5603 5595 5581 5571 5559 5548 5541 5534 5527 5518 5506 5493 5480 5467 5454 5442 5430 5418 5406 5393 5378 5363 5349 5335 5321 5307 5293 5281 5271 5263 5256
5667 5658 5657 5657 5657 5652 5645 5640 5635 5628 5621 5615 5606 5600 5593 5579 5571 5561 5550 5541 5532 5521 5510 5498 5486 5471 5456 5443 5430 5419 5406 5392 5376 5360 5344 5329 5317 5305 5292 5278 5266 5255 5246 5241
5662 5657 5659 5657 5654 5651 5646 5643 5638 5630 5617 5607 5607 5609 5593 5582 5573 5563 5551 5541 5528 5517 5504 5491 5478 5464 5448 5434 5420 5408 5392 5377 5361 5344 5329 5317 5307 5293 5280 5269 5256 5243 5233 5226
5655 5657 5658 5654 5649 5649 5646 5645 5638 5627 5613 5603 5603 5597 5605 5577 5567 5559 5547 5533 5521 5512 5497 5484 5471 5457 5441 5425 5410 5395 5379 5363 5346 5330 5315 5301 5290 5278 5265 5253 5242 5231 5221 5213
5653 5654 5653 5652 5649 5646 5644 5641 5633 5621 5612 5601 5592 5584 5596 5569 5562 5557 5543 5528 5515 5503 5491 5479 5465 5449 5433 5415 5398 5383 5367 5350 5333 5317 5302 5288 5274 5261 5250 5239 5229 5220 5211 5201
5654 5655 5651 5649 5648 5644 5640 5632 5620 5607 5598 5597 5595 5581 5591 5566 5564 5562 5546 5527 5512 5498 5485 5472 5457 5440 5422 5404 5388 5372 5356 5339 5323 5307 5292 5277 5264 5251 5240 5229 5219 5210 5200 5188
5655 5654 5650 5647 5646 5641 5634 5625 5613 5612 5602 5599 5590 5584 5590 5589 5567 5559 5544 5525 5508 5493 5478 5464 5449 5430 5412 5395 5380 5363 5347 5330 5314 5298 5283 5269 5255 5240 5227 5215 5205 5195 5185 5171
5650 5645 5650 5646 5644 5637 5629 5626 5610 5601 5591 5588 5586 5582 5593 5579 5562 5551 5539 5521 5502 5487 5472 5458 5440 5421 5403 5389 5372 5354 5338 5321 5306 5290 5276 5262 5247 5232 5217 5204 5191 5179 5166 5150
5645 5646 5648 5645 5641 5638 5627 5609 5607 5589 5582 5574 5580 5584 5588 5567 5556 5541 5526 5510 5497 5482 5467 5450 5431 5413 5396 5380 5363 5346 5330 5313 5298 5283 5270 5256 5241 5226 5211 5197 5183 5169 5152 5136
5643 5641 5647 5642 5639 5631 5623 5606 5591 5587 5584 5575 5580 5579 5586 5586 5558 5539 5521 5506 5492 5477 5459 5442 5423 5406 5390 5372 5355 5338 5322 5305 5290 5276 5262 5250 5235 5220 5206 5192 5178 5162 5145 5128
5638 5635 5640 5639 5633 5629 5618 5608 5594 5576 5576 5570 5563 5588 5598 5589 5570 5546 5529 5508 5490 5472 5453 5435 5417 5401 5383 5366 5349 5332 5316 5300 5285 5272 5258 5244 5231 5216 5202 5188 5173 5158 5141 5124
5631 5626 5627 5634 5631 5629 5624 5614 5596 5593 5582 5560 5551 5586 5600 5582 5566 5547 5528 5506 5487 5468 5448 5430 5413 5396 5377 5360 5343 5327 5311 5296 5282 5268 5255 5241 5227 5213 5199 5186 5172 5157 5140 5124
5632 5627 5630 5636 5630 5624 5620 5613 5600 5586 5570 5543 5542 5592 5590 5567 5556 5541 5522 5500 5481 5462 5443 5425 5409 5391 5372 5355 5339 5322 5307 5293 5279 5266 5252 5239 5226 5212 5198 5185 5172 5158 5142 5126
5628 5624 5626 5636 5636 5630 5622 5612 5596 5586 5575 5562 5561 5593 5601 5572 5551 5534 5514 5494 5474 5457 5441 5423 5405 5387 5368 5351 5335 5319 5304 5291 5277 5264 5251 5237 5225 5211 5198 5185 5173 5159 5144 5129
5627 5624 5624 5624 5624 5621 5619 5615 5598 5588 5588 5583 5590 5584 5604 5590 5559 5538 5511 5489 5471 5453 5438 5423 5404 5383 5365 5348 5332 5317 5303 5289 5276 5262 5250 5236 5224 5211 5198 5186 5174 5161 5147 5133
5619 5625 5623 5625 5627 5618 5613 5614 5605 5596 5590 5584 5584 5595 5604 5575 5554 5530 5507 5491 5474 5456 5440 5422 5404 5384 5365 5347 5331 5316 5302 5289 5275 5261 5248 5236 5224 5212 5200 5189 5177 5164 5150 5137
5613 5620 5624 5620 5620 5624 5632 5638 5615 5609 5600 5596 5596 5607 5596 5571 5548 5529 5510 5493 5476 5456 5438 5420 5402 5383 5365 5347 5331 5316 5303 5288 5274 5260 5247 5236 5224 5213 5202 5190 5179 5167 5154 5142
5613 5611 5604 5603 5618 5636 5658 5644 5633 5627 5621 5602 5602 5604 5586 5570 5548 5529 5510 5493 5474 5455 5437 5419 5400 5382 5364 5347 5332 5317 5303 5288 5273 5260 5247 5236 5225 5214 5203 5193 5182 5170 5159 5148
5609 5609 5602 5597 5608 5623 5646 5640 5627 5623 5627 5623 5609 5607 5576 5544 5537 5523 5508 5493 5475 5454 5435 5416 5398 5381 5364 5348 5332 5317 5303 5288 5274 5261 5249 5239 5227 5216 5206 5196 5185 5175 5164 5155
5595 5595 5588 5585 5609 5620 5652 5635 5623 5623 5621 5630 5611 5599 5556 5544 5544 5542 5514 5492 5470 5451 5433 5414 5396 5380 5364 5349 5334 5319 5304 5289 5276 5263 5252 5242 5230 5219 5209 5199 5189 5180 5171 5163
5591 5587 5584 5579 5591 5621 5644 5623 5621 5621 5633 5640 5615 5594 5562 5555 5557 5538 5513 5489 5469 5449 5430 5413 5395 5380 5366 5351 5336 5321 5306 5291 5279 5267 5256 5245 5234 5223 5214 5204 5194 5185 5177 5167
5606 5589 5581 5578 5583 5621 5638 5617 5624 5642 5644 5632 5613 5593 5573 5560 5538 5523 5507 5488 5468 5448 5429 5411 5395 5381 5367 5352 5337 5322 5308 5295 5282 5270 5259 5249 5238 5228 5220 5208 5200 5192 5183 5175
5617 5630 5621 5624 5647 5657 5641 5645 5647 5642 5634 5623 5609 5592 5574 5554 5536 5522 5504 5485 5466 5447 5429 5411 5396 5382 5368 5354 5339 5324 5311 5297 5284 5272 5262 5252 5243 5233 5224 5215 5207 5200 5192 5185
5619 5618 5618 5616 5650 5654 5642 5642 5642 5633 5629 5623 5607 5590 5574 5557 5541 5522 5504 5484 5465 5447 5429 5412 5397 5383 5370 5356 5342 5328 5314 5300 5286 5274 5264 5255 5245 5238 5230 5222 5215 5207 5201 5196
5638 5613 5615 5625 5650 5649 5656 5652 5653 5642 5627 5616 5601 5588 5577 5561 5542 5524 5506 5488 5468 5451 5433 5414 5400 5387 5374 5359 5345 5332 5317 5303 5289 5277 5267 5257 5249 5240 5233 5228 5221 5215 5209 5204
5630 5632 5634 5658 5667 5657 5669 5669 5655 5641 5629 5616 5600 5584 5573 5561 5546 5526 5509 5491 5471 5453 5434 5418 5403 5389 5376 5362 5348 5335 5321 5306 5292 5281 5271 5261 5253 5244 5237 5229 5225 5221 5216 5211